カタログに戻る

STARLINK-32103

運用中通信VLEO
NORAD 59688·PAYLOAD·🇺🇸 United States

打ち上げ May 8, 2024 から Cape Canaveral Space Force Station

Loading…

次のパス (今後24時間)

TLE

最新Source: CelesTrak SupGP

元期: Sep 15, 2026, 02:03 UTC

1 59688C 24086G   26258.08590278 -.00017003  00000+0 -61595-3 0  2587
2 59688  43.0043  59.7256 0001713 268.4596 318.1780 15.27580384    10

AllMySatでSTARLINK-32103をリアルタイム追跡

Download on the App Store